Location: Unspecified
(44.0704°N, 88.6889°W)
Time: 17:47:13
(UTC+02:00)

Altair - Pass Details

Date: 23 June 2019
Orbit: 1501 x 1683 km, 47.2° (Epoch: 21 July)

Event Time Altitude Azimuth Distance (km) Brightness Sun altitude
Rises 10:37:13 0° 294° (WNW) 4,872 10.0 -13.2°
Reaches altitude 10° 10:40:42 10° 286° (WNW) 3,904 9.4 -12.8°
Maximum altitude 10:49:19 34° 226° (SW) 2,500 8.1 -11.8°
Drops below altitude 10° 10:58:02 10° 167° (SSE) 3,934 9.3 -10.8°
Sets 11:01:35 0° 158° (SSE) 4,915 9.9 -10.4°
